Weather History for Bentonville, AR

Change the Weather History Date:

Saturday, May 17, 2014

  Actual Average Record
Temperature  
Mean Temperature 53 °F -  
Max Temperature 60 °F 78 °F 87 °F (1964)
Min Temperature 46 °F 53 °F 37 °F (1973)
Degree Days  
Heating Degree Days 12    
Growing Degree Days 3 (Base 50)    
Moisture  
Dew Point 45 °F    
Average Humidity 73    
Maximum Humidity 87    
Minimum Humidity 59    
Precipitation  
Precipitation 0.01 in - - ()
Sea Level Pressure  
Sea Level Pressure 30.14 in    
Wind  
Wind Speed 8 mph (ESE)    
Max Wind Speed 13 mph    
Max Gust Speed -    
Visibility 10 miles    
Events      
Averages and records for this station are not official NWS values.
T = Trace of Precipitation, MM = Missing Value Source: NWS Daily Summary

Daily Weather History Graph

Daily Weather History Graph

Search for Another Location

Airport:

Trip Planner

Search our weather history database for the weather conditions in past years. The results will help you decide how hot, cold, wet, or windy it might be!

Date:

Astronomy

May. 17, 2014 Rise Set
Actual Time 6:08 AM CDT 8:18 PM CDT
Civil Twilight 5:39 AM CDT 8:47 PM CDT
Nautical Twilight 5:04 AM CDT 9:22 PM CDT
Astronomical Twilight 4:26 AM CDT 10:00 PM CDT
Moon 11:20 PM CDT (5/17) 8:52 AM CDT (5/17)
Length of Visible Light 15h 07m
Length of Day
14h 09m
Waning Gibbous, 89% of the Moon is Illuminated
May 17
Waning Gibbous
May 21
Last Quarter
May 28
New
Jun 5
First Quarter
Jun 12
Full

Hourly Weather History & Observations

Time (CDT) Temp. Windchill Dew Point Humidity Pressure Visibility Wind Dir Wind Speed Gust Speed Precip Events Conditions
12:15 AM 48.2 °F - 41.0 °F 76% 30.14 in 10.0 mi ENE 9.2 mph - N/A   Overcast
12:35 AM 46.4 °F 42.9 °F 41.0 °F 81% 30.14 in 9.0 mi East 6.9 mph - 0.01 in   Overcast
12:55 AM 46.4 °F 42.4 °F 41.0 °F 81% 30.14 in 10.0 mi East 8.1 mph - 0.01 in   Overcast
1:15 AM 46.4 °F 42.4 °F 41.0 °F 81% 30.14 in 10.0 mi ENE 8.1 mph - N/A   Mostly Cloudy
1:35 AM 46.4 °F 42.4 °F 41.0 °F 81% 30.14 in 10.0 mi East 8.1 mph - N/A   Mostly Cloudy
1:55 AM - - - N/A% 30.14 in 10.0 mi ESE 6.9 mph - N/A   Overcast
2:15 AM 46.4 °F 42.4 °F 41.0 °F 81% 30.13 in 10.0 mi ESE 8.1 mph - N/A   Overcast
2:35 AM - - - N/A% 30.11 in 10.0 mi SE 9.2 mph - N/A   Overcast
2:55 AM - - - N/A% 30.11 in 10.0 mi SE 8.1 mph - N/A   Overcast
3:15 AM - - - N/A% 30.11 in 10.0 mi SE 9.2 mph - N/A   Overcast
3:35 AM - - - N/A% 30.11 in 10.0 mi SSE 9.2 mph - N/A   Overcast
3:55 AM - - - N/A% 30.12 in 10.0 mi SSE 10.4 mph - N/A   Overcast
4:15 AM 48.2 °F - 41.0 °F 76% 30.12 in 10.0 mi SE 8.1 mph - N/A   Overcast
4:35 AM - - - N/A% 30.11 in 10.0 mi East 6.9 mph - N/A   Overcast
4:55 AM 48.2 °F - 42.8 °F 82% 30.09 in 10.0 mi East 9.2 mph - N/A   Overcast
5:15 AM 46.4 °F 41.5 °F 41.0 °F 81% 30.07 in 10.0 mi East 10.4 mph - N/A   Mostly Cloudy
5:35 AM 46.4 °F 42.9 °F 42.8 °F 87% 30.08 in 10.0 mi East 6.9 mph - N/A   Clear
5:55 AM 46.4 °F 43.5 °F 42.8 °F 87% 30.09 in 10.0 mi East 5.8 mph - N/A   Scattered Clouds
6:15 AM 46.4 °F 42.9 °F 42.8 °F 87% 30.09 in 10.0 mi East 6.9 mph - N/A   Mostly Cloudy
6:35 AM 46.4 °F 44.3 °F 42.8 °F 87% 30.10 in 10.0 mi East 4.6 mph - N/A   Overcast
6:55 AM 48.2 °F - 42.8 °F 82% 30.10 in 10.0 mi East 6.9 mph - N/A   Overcast
7:15 AM 48.2 °F - 42.8 °F 82% 30.11 in 10.0 mi East 8.1 mph - N/A   Overcast
7:35 AM 48.2 °F - 42.8 °F 82% 30.12 in 10.0 mi ENE 8.1 mph - N/A   Overcast
7:55 AM 48.2 °F - 42.8 °F 82% 30.12 in 10.0 mi East 9.2 mph - N/A   Overcast
8:15 AM 50.0 °F - 44.6 °F 82% 30.12 in 10.0 mi ESE 9.2 mph - N/A   Mostly Cloudy
8:35 AM 51.8 °F - 44.6 °F 76% 30.14 in 10.0 mi ESE 10.4 mph - N/A   Clear
8:55 AM 53.6 °F - 44.6 °F 72% 30.15 in 10.0 mi East 11.5 mph - N/A   Clear
9:15 AM 53.6 °F - 44.6 °F 72% 30.15 in 10.0 mi East 9.2 mph - N/A   Mostly Cloudy
9:35 AM 53.6 °F - 44.6 °F 72% 30.15 in 10.0 mi East 10.4 mph - N/A   Overcast
9:55 AM 53.6 °F - 44.6 °F 72% 30.15 in 10.0 mi East 12.7 mph - N/A   Mostly Cloudy
10:15 AM 55.4 °F - 44.6 °F 67% 30.15 in 10.0 mi ENE 10.4 mph - N/A   Mostly Cloudy
10:35 AM 55.4 °F - 46.4 °F 72% 30.15 in 10.0 mi ENE 12.7 mph - N/A   Overcast
10:55 AM 55.4 °F - 46.4 °F 72% 30.15 in 10.0 mi ENE 10.4 mph - N/A   Mostly Cloudy
11:15 AM 55.4 °F - 46.4 °F 72% 30.16 in 10.0 mi East 6.9 mph - N/A   Mostly Cloudy
11:35 AM 57.2 °F - 46.4 °F 67% 30.17 in 10.0 mi East 10.4 mph - N/A   Overcast
11:55 AM 57.2 °F - 46.4 °F 67% 30.16 in 10.0 mi East 8.1 mph - N/A   Overcast
12:15 PM 57.2 °F - 46.4 °F 67% 30.17 in 10.0 mi East 6.9 mph - N/A   Overcast
12:35 PM 57.2 °F - 46.4 °F 67% 30.16 in 10.0 mi ESE 9.2 mph - N/A   Overcast
12:55 PM 57.2 °F - 46.4 °F 67% 30.16 in 10.0 mi East 6.9 mph - N/A   Overcast
1:15 PM 55.4 °F - 46.4 °F 72% 30.16 in 10.0 mi East 10.4 mph - N/A   Overcast
1:35 PM 55.4 °F - 46.4 °F 72% 30.16 in 10.0 mi NE 11.5 mph - N/A   Overcast
1:55 PM 55.4 °F - 46.4 °F 72% 30.16 in 10.0 mi East 11.5 mph - N/A   Overcast
2:15 PM 57.2 °F - 46.4 °F 67% 30.16 in 10.0 mi ENE 10.4 mph - N/A   Overcast
2:35 PM 57.2 °F - 46.4 °F 67% 30.16 in 10.0 mi ESE 9.2 mph - N/A   Overcast
2:55 PM 57.2 °F - 46.4 °F 67% 30.15 in 10.0 mi ESE 8.1 mph - N/A   Overcast
3:15 PM 57.2 °F - 46.4 °F 67% 30.15 in 10.0 mi East 9.2 mph - N/A   Overcast
3:35 PM 60.8 °F - 46.4 °F 59% 30.15 in 10.0 mi ENE 9.2 mph - N/A   Mostly Cloudy
3:55 PM 59.0 °F - 46.4 °F 63% 30.15 in 10.0 mi ENE 8.1 mph - N/A   Overcast
4:15 PM 59.0 °F - 46.4 °F 63% 30.14 in 10.0 mi East 9.2 mph - N/A   Mostly Cloudy
4:35 PM 57.2 °F - 46.4 °F 67% 30.14 in 10.0 mi East 6.9 mph - N/A   Scattered Clouds
4:55 PM 57.2 °F - 46.4 °F 67% 30.13 in 10.0 mi ENE 8.1 mph - N/A   Scattered Clouds
5:15 PM 57.2 °F - 46.4 °F 67% 30.12 in 10.0 mi East 8.1 mph - N/A   Partly Cloudy
5:35 PM 59.0 °F - 46.4 °F 63% 30.12 in 10.0 mi ESE 8.1 mph - N/A   Clear
5:55 PM 60.8 °F - 46.4 °F 59% 30.13 in 10.0 mi SE 6.9 mph - N/A   Partly Cloudy
6:15 PM 60.8 °F - 48.2 °F 63% 30.12 in 10.0 mi ESE 5.8 mph - N/A   Clear
6:35 PM 59.0 °F - 46.4 °F 63% 30.12 in 10.0 mi East 8.1 mph - N/A   Clear
6:55 PM 59.0 °F - 46.4 °F 63% 30.13 in 10.0 mi East 4.6 mph - N/A   Clear
7:15 PM 57.2 °F - 46.4 °F 67% 30.13 in 10.0 mi ESE 6.9 mph - N/A   Clear
7:35 PM 57.2 °F - 46.4 °F 67% 30.14 in 10.0 mi ESE 5.8 mph - N/A   Scattered Clouds
7:55 PM 57.2 °F - 46.4 °F 67% 30.14 in 10.0 mi SSE 5.8 mph - N/A   Mostly Cloudy
8:15 PM 55.4 °F - 48.2 °F 77% 30.15 in 10.0 mi SSE 4.6 mph - N/A   Scattered Clouds
8:35 PM 55.4 °F - 48.2 °F 77% 30.15 in 10.0 mi SE 4.6 mph - N/A   Clear
8:55 PM 55.4 °F - 46.4 °F 72% 30.15 in 10.0 mi SE 4.6 mph - N/A   Clear
9:15 PM 55.4 °F - 48.2 °F 77% 30.16 in 10.0 mi SE 8.1 mph - N/A   Mostly Cloudy
9:35 PM 55.4 °F - 48.2 °F 77% 30.16 in 10.0 mi SSE 5.8 mph - N/A   Mostly Cloudy
9:55 PM 53.6 °F - 46.4 °F 77% 30.17 in 10.0 mi SSE 8.1 mph - N/A   Mostly Cloudy
10:15 PM 53.6 °F - 46.4 °F 77% 30.18 in 10.0 mi SSE 5.8 mph - N/A   Mostly Cloudy
10:35 PM 53.6 °F - 46.4 °F 77% 30.18 in 10.0 mi SE 5.8 mph - N/A   Mostly Cloudy
10:55 PM 53.6 °F - 46.4 °F 77% 30.17 in 10.0 mi SE 6.9 mph - N/A   Overcast
11:15 PM 53.6 °F - 46.4 °F 77% 30.16 in 10.0 mi SSE 8.1 mph - N/A   Overcast
11:35 PM 53.6 °F - 46.4 °F 77% 30.16 in 10.0 mi SSE 6.9 mph - N/A   Overcast
11:55 PM 53.6 °F - 46.4 °F 77% 30.17 in 10.0 mi SE 5.8 mph - N/A   Overcast